Tillbaka till svenska Fidonet
English   Information   Debug  
FILM   0/18
FNEWS_PUBLISH   5034
FN_SYSOP   42247
FN_SYSOP_OLD1   71952
FTP_FIDO   0/2
FTSC_PUBLIC   0/13979
FUNNY   0/4886
GENEALOGY.EUR   0/71
GET_INFO   105
GOLDED   0/408
HAM   431/16786
HOLYSMOKE   0/6791
HOT_SITES   0/1
HTMLEDIT   0/71
HUB203   466
HUB_100   264
HUB_400   39
HUMOR   0/29
IC   0/2851
INTERNET   0/424
INTERUSER   0/3
IP_CONNECT   719
JAMNNTPD   0/233
JAMTLAND   0/47
KATTY_KORNER   0/41
LAN   0/16
LINUX-USER   0/19
LINUXHELP   0/1155
LINUX   0/22427
LINUX_BBS   0/957
mail   18.68
mail_fore_ok   249
MENSA   0/341
MODERATOR   0/102
MONTE   0/992
MOSCOW_OKLAHOMA   0/1245
MUFFIN   0/783
MUSIC   0/321
N203_STAT   938
N203_SYSCHAT   313
NET203   321
NET204   69
NET_DEV   0/10
NORD.ADMIN   0/101
NORD.CHAT   0/2572
NORD.FIDONET   189
NORD.HARDWARE   0/28
NORD.KULTUR   0/114
NORD.PROG   0/32
NORD.SOFTWARE   0/88
NORD.TEKNIK   0/58
NORD   0/453
OCCULT_CHAT   0/93
OS2BBS   0/787
OS2DOSBBS   0/580
OS2HW   0/42
OS2INET   0/37
OS2LAN   0/134
OS2PROG   0/36
OS2REXX   0/113
OS2USER-L   207
OS2   0/4835
OSDEBATE   0/18996
PASCAL   0/490
PERL   0/457
PHP   0/45
POINTS   0/405
POLITICS   0/29554
POL_INC   0/14731
PSION   103
R20_ADMIN   1133
R20_AMATORRADIO   0/2
R20_BEST_OF_FIDONET   16
R20_CHAT   0/897
R20_DEPP   0/3
R20_DEV   400
R20_ECHO2   1933
R20_ECHOPRES   0/35
R20_ESTAT   0/719
R20_FIDONETPROG...
...RAM.MYPOINT
  0/2
R20_FIDONETPROGRAM   0/22
R20_FIDONET   0/248
R20_FILEFIND   0/24
R20_FILEFOUND   0/22
R20_HIFI   0/3
R20_INFO2   3827
R20_INTERNET   0/12940
R20_INTRESSE   0/60
R20_INTR_KOM   0/99
R20_KANDIDAT.CHAT   42
R20_KANDIDAT   28
R20_KOM_DEV   112
R20_KONTROLL   0/13360
R20_KORSET   0/18
R20_LOKALTRAFIK   0/24
R20_MODERATOR   0/1852
R20_NC   76
R20_NET200   245
R20_NETWORK.OTH...
...ERNETS
  0/13
R20_OPERATIVSYS...
...TEM.LINUX
  0/44
R20_PROGRAMVAROR   0/1
R20_REC2NEC   534
R20_SFOSM   0/341
R20_SF   0/108
R20_SPRAK.ENGLISH   0/1
R20_SQUISH   107
R20_TEST   2
R20_WORST_OF_FIDONET   20
RAR   0/9
RA_MULTI   106
RA_UTIL   0/162
REGCON.EUR   0/2072
REGCON   0/13
SCIENCE   0/1206
SF   0/239
SHAREWARE_SUPPORT   0/5146
SHAREWRE   0/14
SIMPSONS   0/169
STATS_OLD1   0/2539.065
STATS_OLD2   0/2530
STATS_OLD3   0/2395.095
STATS_OLD4   0/1692.25
SURVIVOR   0/495
SYSOPS_CORNER   0/3
SYSOP   0/84
TAGLINES   0/112
TEAMOS2   0/4530
TECH   0/2617
TEST.444   0/105
TRAPDOOR   0/19
TREK   0/755
TUB   0/290
UFO   0/40
UNIX   0/1316
USA_EURLINK   0/102
USR_MODEMS   0/1
VATICAN   0/2740
VIETNAM_VETS   0/14
VIRUS   0/378
VIRUS_INFO   0/201
VISUAL_BASIC   0/473
WHITEHOUSE   0/5187
WIN2000   0/101
WIN32   0/30
WIN95   0/4291
WIN95_OLD1   0/70272
WINDOWS   0/1517
WWB_SYSOP   0/419
WWB_TECH   541/810
ZCC-PUBLIC   0/1
ZEC   4

 
4DOS   0/134
ABORTION   0/7
ALASKA_CHAT   0/506
ALLFIX_FILE   0/1313
ALLFIX_FILE_OLD1   0/7997
ALT_DOS   0/152
AMATEUR_RADIO   0/1039
AMIGASALE   0/14
AMIGA   0/331
AMIGA_INT   0/1
AMIGA_PROG   0/20
AMIGA_SYSOP   0/26
ANIME   0/15
ARGUS   0/924
ASCII_ART   0/340
ASIAN_LINK   0/651
ASTRONOMY   0/417
AUDIO   0/92
AUTOMOBILE_RACING   0/105
BABYLON5   0/17862
BAG   135
BATPOWER   190/361
BBBS.ENGLISH   0/382
BBSLAW   0/109
BBS_ADS   0/5290
BBS_INTERNET   0/507
BIBLE   0/3563
BINKD   0/1119
BINKLEY   0/215
BLUEWAVE   0/2173
CABLE_MODEMS   0/25
CBM   0/46
CDRECORD   0/66
CDROM   0/20
CLASSIC_COMPUTER   0/378
COMICS   0/15
CONSPRCY   0/899
COOKING   42383
COOKING_OLD1   0/24719
COOKING_OLD2   15240/40862
COOKING_OLD3   0/37489
COOKING_OLD4   13369/35496
COOKING_OLD5   9370
C_ECHO   0/189
C_PLUSPLUS   0/31
DIRTY_DOZEN   0/201
DOORGAMES   0/2388
DOS_INTERNET   0/196
duplikat   6102
ECHOLIST   11133/18295
EC_SUPPORT   0/318
ELECTRONICS   0/359
ELEKTRONIK.GER   1534
ENET.LINGUISTIC   0/13
ENET.POLITICS   0/4
ENET.SOFT   0/11701
ENET.SYSOP   34409
ENET.TALKS   0/32
ENGLISH_TUTOR   0/2000
EVOLUTION   0/1335
FDECHO   0/217
FDN_ANNOUNCE   0/7068
FIDONEWS   25225
FIDONEWS_OLD1   0/49742
FIDONEWS_OLD2   0/35949
FIDONEWS_OLD3   0/30874
FIDONEWS_OLD4   0/37224
FIDO_SYSOP   12977
FIDO_UTIL   0/180
FILEFIND   0/209
FILEGATE   0/212
Möte HAM, 16786 texter
 lista första sista föregående nästa
Text 4533, 908 rader
Skriven 2011-06-09 00:31:51 av Amsat List (1:323/120.0)
Ärende: [keps]  orb11159.amsa
=============================
[keps]  orb11159.amsa

Return-Path: <keps-bounces@amsat.org>
X-Rcpt: craig.healy@chowda.com
X-UIDL: 1307592578.1147

SB KEPS @ AMSAT  $ORB11159.O
Orbital Elements  11159.OSCAR

HR AMSAT ORBITAL ELEMENTS FOR OSCAR SATELLITES
FROM WA5QGD FORT WORTH,TX June 8, 2011
Send Subscribe/unsubscribe to KEPS at http://www.amsat.org/mailman/listinfo/kep
BID: ORB11159.O
TO ALL RADIO AMATEURS BT

Satellite: AO-07
Catalog number: 07530
Epoch time:      11159.53702851
Element set:      98
Inclination:      101.3913 deg
RA of node:       166.4189 deg
Eccentricity:    0.0011699
Arg of perigee:   297.6727 deg
Mean anomaly:     062.3154 deg
Mean motion:   12.53582714 rev/day
Decay rate:       -2.7e-07 rev/day^2
Epoch rev:           67310
Checksum:              303

Satellite: FO-29
Catalog number: 24278
Epoch time:      11158.95881924
Element set:    0603
Inclination:      098.5424 deg
RA of node:       304.3266 deg
Eccentricity:    0.0349644
Arg of perigee:   281.1787 deg
Mean anomaly:     075.0241 deg
Mean motion:   13.52961135 rev/day
Decay rate:       -5.8e-07 rev/day^2
Epoch rev:           73121
Checksum:              319

Satellite: SO-33
Catalog number: 25509
Epoch time:      11158.72978890
Element set:     984
Inclination:      031.4336 deg
RA of node:       297.8071 deg
Eccentricity:    0.0353823
Arg of perigee:   159.0082 deg
Mean anomaly:     202.5469 deg
Mean motion:   14.28412579 rev/day
Decay rate:       3.31e-06 rev/day^2
Epoch rev:           65892
Checksum:              335

Satellite: RS-22
Catalog number: 27939
Epoch time:      11159.60884404
Element set:     334
Inclination:      097.8477 deg
RA of node:       014.0176 deg
Eccentricity:    0.0014104
Arg of perigee:   017.6287 deg
Mean anomaly:     342.5429 deg
Mean motion:   14.63593337 rev/day
Decay rate:       2.99e-06 rev/day^2
Epoch rev:           41108
Checksum:              314

Satellite: VO-52
Catalog number: 28650
Epoch time:      11158.64300926
Element set:    0815
Inclination:      097.6410 deg
RA of node:       202.2006 deg
Eccentricity:    0.0026545
Arg of perigee:   190.5444 deg
Mean anomaly:     169.5203 deg
Mean motion:   14.82077359 rev/day
Decay rate:       8.57e-06 rev/day^2
Epoch rev:           32933
Checksum:              298

Satellite: SO-67
Catalog number: 35870
Epoch time:      11159.86045204
Element set:     916
Inclination:      097.2811 deg
RA of node:       203.4970 deg
Eccentricity:    0.0003847
Arg of perigee:   067.6263 deg
Mean anomaly:     019.1650 deg
Mean motion:   15.20769942 rev/day
Decay rate:      1.931e-05 rev/day^2
Epoch rev:            9567
Checksum:              320

Satellite: HO-68
Catalog number: 36122
Epoch time:      11159.64977574
Element set:     451
Inclination:      100.4154 deg
RA of node:       220.5895 deg
Eccentricity:    0.0007179
Arg of perigee:   243.0424 deg
Mean anomaly:     116.9962 deg
Mean motion:   13.16286628 rev/day
Decay rate:       -4.5e-07 rev/day^2
Epoch rev:            7111
Checksum:              301

/EX
SB KEPS @ AMSAT  $ORB11159.D
Orbital Elements  11159.MICROS

HR AMSAT ORBITAL ELEMENTS FOR THE MICROSATS
FROM WA5QGD FORT WORTH,TX June 8, 2011
Send Subscribe/unsubscribe to KEPS at http://www.amsat.org/mailman/listinfo/kep
BID: ORB11159.D
TO ALL RADIO AMATEURS BT

Satellite: UO-11
Catalog number: 14781
Epoch time:      11158.67365788
Element set:    0583
Inclination:      098.0062 deg
RA of node:       215.4140 deg
Eccentricity:    0.0009361
Arg of perigee:   162.1178 deg
Mean anomaly:     198.0356 deg
Mean motion:   14.79980562 rev/day
Decay rate:       5.60e-06 rev/day^2
Epoch rev:           46438
Checksum:              321

Satellite: AO-16
Catalog number: 20439
Epoch time:      11159.56699121
Element set:     204
Inclination:      098.3840 deg
RA of node:       109.4735 deg
Eccentricity:    0.0010571
Arg of perigee:   184.5739 deg
Mean anomaly:     175.5346 deg
Mean motion:   14.31922808 rev/day
Decay rate:        5.2e-07 rev/day^2
Epoch rev:           11638
Checksum:              305

Satellite: LO-19
Catalog number: 20442
Epoch time:      11158.87930830
Element set:     118
Inclination:      098.3462 deg
RA of node:       113.1970 deg
Eccentricity:    0.0011712
Arg of perigee:   180.0258 deg
Mean anomaly:     180.0927 deg
Mean motion:   14.32148727 rev/day
Decay rate:       1.22e-06 rev/day^2
Epoch rev:           11646
Checksum:              275

Satellite: AO-27
Catalog number: 22825
Epoch time:      11159.82011337
Element set:     836
Inclination:      098.5321 deg
RA of node:       104.4466 deg
Eccentricity:    0.0007669
Arg of perigee:   304.8277 deg
Mean anomaly:     055.2189 deg
Mean motion:   14.29349935 rev/day
Decay rate:        6.6e-07 rev/day^2
Epoch rev:           92299
Checksum:              332

Satellite: IO-26
Catalog number: 22826
Epoch time:      11159.82109403
Element set:     580
Inclination:      098.5260 deg
RA of node:       104.9261 deg
Eccentricity:    0.0008036
Arg of perigee:   298.8556 deg
Mean anomaly:     061.1818 deg
Mean motion:   14.29611802 rev/day
Decay rate:        6.5e-07 rev/day^2
Epoch rev:           92311
Checksum:              295

Satellite: GO-32
Catalog number: 25397
Epoch time:      11159.40535755
Element set:     498
Inclination:      098.3242 deg
RA of node:       152.4368 deg
Eccentricity:    0.0001044
Arg of perigee:   358.5182 deg
Mean anomaly:     001.6015 deg
Mean motion:   14.23210266 rev/day
Decay rate:        3.1e-07 rev/day^2
Epoch rev:           67071
Checksum:              277

